DLH420 LROP-LRBC

Flight info

Callsign DLH420
Flight time 0h 31m
Altitude 23000
Route DENAK DCT FOCSA/N0279F090 T74 KENUX
Aircraft A320/M-SDE3FGHIRWY/LB1

Departure

Time 2026-04-23 18:52
Airport Bucharest Henri Coandă International Airport (LROP)

Arrival

Time 2026-04-23 19:24
Airport Bacău George Enescu International Airport (LRBC)
Time Latitude Longitude Altitude Speed Heading
2026-04-23 18:29 44.56873 26.08685 322 ft 0 kts 173°
2026-04-23 18:43 44.56878 26.08684 295 ft 2 kts 174°
2026-04-23 18:43 44.56880 26.08684 322 ft 2 kts 174°
2026-04-23 18:43 44.56826 26.08642 322 ft 12 kts 249°
2026-04-23 18:44 44.56862 26.08559 322 ft 12 kts 347°
2026-04-23 18:44 44.56869 26.08557 323 ft 0 kts 348°
2026-04-23 18:44 44.56878 26.08555 323 ft 7 kts 352°
2026-04-23 18:45 44.56918 26.08605 322 ft 8 kts 78°
2026-04-23 18:45 44.56928 26.08675 322 ft 7 kts 81°
2026-04-23 18:45 44.56933 26.08737 322 ft 6 kts 84°
2026-04-23 18:45 44.56937 26.08790 322 ft 5 kts 84°
2026-04-23 18:46 44.56941 26.08856 322 ft 14 kts 84°
2026-04-23 18:46 44.56959 26.09102 322 ft 35 kts 83°
2026-04-23 18:46 44.56988 26.09506 322 ft 48 kts 84°
2026-04-23 18:46 44.57031 26.09887 322 ft 23 kts 50°
2026-04-23 18:47 44.57174 26.09890 321 ft 22 kts 352°
2026-04-23 18:47 44.57331 26.09863 321 ft 23 kts 353°
2026-04-23 18:47 44.57498 26.09840 322 ft 25 kts 353°
2026-04-23 18:47 44.57604 26.09962 322 ft 23 kts 77°
2026-04-23 18:48 44.57620 26.10192 322 ft 25 kts 85°
2026-04-23 18:48 44.57639 26.10441 322 ft 26 kts 84°
2026-04-23 18:48 44.57658 26.10705 322 ft 28 kts 84°
2026-04-23 18:48 44.57682 26.10984 322 ft 30 kts 83°
2026-04-23 18:49 44.57704 26.11278 321 ft 31 kts 85°
2026-04-23 18:49 44.57727 26.11583 320 ft 32 kts 84°
2026-04-23 18:49 44.57751 26.11898 322 ft 33 kts 84°
2026-04-23 18:49 44.57775 26.12220 322 ft 34 kts 84°
2026-04-23 18:50 44.57791 26.12441 322 ft 27 kts 84°
2026-04-23 18:50 44.57810 26.12694 322 ft 20 kts 84°
2026-04-23 18:50 44.57865 26.12853 322 ft 18 kts
2026-04-23 18:50 44.57970 26.12755 322 ft 18 kts 302°
2026-04-23 18:51 44.57979 26.12641 323 ft 0 kts 264°
2026-04-23 18:51 44.57979 26.12634 323 ft 12 kts 264°
2026-04-23 18:51 44.57939 26.12106 323 ft 91 kts 265°
2026-04-23 18:51 44.57853 26.10933 322 ft 148 kts 264°
2026-04-23 18:52 44.57737 26.09344 593 ft 174 kts 264°
2026-04-23 18:52 44.57584 26.07569 1013 ft 193 kts 264°
2026-04-23 18:52 44.57420 26.05612 1461 ft 209 kts 265°
2026-04-23 18:52 44.57250 26.03540 1975 ft 221 kts 266°
2026-04-23 18:53 44.57454 26.01366 2357 ft 240 kts 298°
2026-04-23 18:53 44.58611 25.99664 3170 ft 248 kts 331°
2026-04-23 18:53 44.60292 25.99106 4155 ft 255 kts
2026-04-23 18:53 44.61956 25.99977 5153 ft 263 kts 32°
2026-04-23 18:54 44.63383 26.01512 5525 ft 249 kts 35°
2026-04-23 18:54 44.64683 26.02996 5644 ft 238 kts 36°
2026-04-23 18:54 44.66027 26.04533 6019 ft 259 kts 36°
2026-04-23 18:54 44.67443 26.06147 6605 ft 265 kts 36°
2026-04-23 18:55 44.68884 26.07794 7546 ft 268 kts 36°
2026-04-23 18:55 44.70339 26.09460 8490 ft 272 kts 36°
2026-04-23 18:55 44.71816 26.11147 9423 ft 275 kts 36°
2026-04-23 18:55 44.73316 26.12856 10188 ft 286 kts 36°
2026-04-23 18:56 44.74369 26.14048 10401 ft 301 kts 36°
2026-04-23 18:56 44.76673 26.16650 10791 ft 332 kts 36°
2026-04-23 18:56 44.78502 26.18722 11376 ft 342 kts 36°
2026-04-23 18:56 44.80367 26.20843 12116 ft 347 kts 36°
2026-04-23 18:57 44.82261 26.23003 12861 ft 352 kts 36°
2026-04-23 18:57 44.84179 26.25194 13613 ft 357 kts 36°
2026-04-23 18:57 44.86119 26.27411 14299 ft 361 kts 36°
2026-04-23 18:57 44.88074 26.29646 15046 ft 362 kts 36°
2026-04-23 18:58 44.90038 26.31887 15795 ft 363 kts 36°
2026-04-23 18:58 44.92004 26.34132 16549 ft 364 kts 36°
2026-04-23 18:58 44.93975 26.36392 17283 ft 365 kts 36°
2026-04-23 18:58 44.95946 26.38652 18016 ft 366 kts 35°
2026-04-23 18:59 44.97904 26.40881 18639 ft 366 kts 33°
2026-04-23 18:59 45.00061 26.42766 19228 ft 364 kts 23°
2026-04-23 18:59 45.02414 26.44031 19816 ft 362 kts 13°
2026-04-23 18:59 45.04885 26.44732 20401 ft 362 kts
2026-04-23 19:00 45.07367 26.45352 20983 ft 364 kts
2026-04-23 19:00 45.09865 26.45981 21521 ft 366 kts
2026-04-23 19:00 45.12379 26.46615 22067 ft 368 kts
2026-04-23 19:00 45.14903 26.47254 22631 ft 369 kts
2026-04-23 19:01 45.17433 26.47896 22845 ft 370 kts
2026-04-23 19:01 45.20011 26.48551 22880 ft 382 kts
2026-04-23 19:01 45.22641 26.49219 22884 ft 386 kts
2026-04-23 19:01 45.25291 26.49892 22883 ft 387 kts
2026-04-23 19:02 45.27089 26.50349 22895 ft 387 kts
2026-04-23 19:02 45.30607 26.51245 22879 ft 388 kts
2026-04-23 19:02 45.33262 26.51919 22877 ft 388 kts
2026-04-23 19:02 45.35921 26.52597 22883 ft 387 kts
2026-04-23 19:03 45.38577 26.53275 22877 ft 387 kts
2026-04-23 19:03 45.41227 26.53950 22874 ft 387 kts
2026-04-23 19:03 45.43881 26.54624 22871 ft 387 kts
2026-04-23 19:03 45.46536 26.55302 22849 ft 387 kts
2026-04-23 19:04 45.49190 26.55981 22872 ft 388 kts
2026-04-23 19:04 45.51844 26.56661 22868 ft 388 kts
2026-04-23 19:04 45.54497 26.57340 22871 ft 388 kts
2026-04-23 19:04 45.57156 26.58022 22865 ft 388 kts
2026-04-23 19:05 45.59809 26.58704 22869 ft 388 kts
2026-04-23 19:05 45.62463 26.59386 22871 ft 388 kts
2026-04-23 19:05 45.65128 26.60072 22869 ft 388 kts
2026-04-23 19:05 45.67784 26.60757 22869 ft 388 kts
2026-04-23 19:06 45.70421 26.61441 22583 ft 381 kts
2026-04-23 19:06 45.73011 26.62114 21858 ft 376 kts
2026-04-23 19:06 45.75578 26.62778 21173 ft 373 kts
2026-04-23 19:06 45.78122 26.63436 20488 ft 370 kts
2026-04-23 19:07 45.80651 26.64091 19838 ft 368 kts
2026-04-23 19:07 45.83158 26.64741 19242 ft 363 kts
2026-04-23 19:07 45.85560 26.65364 18801 ft 342 kts
2026-04-23 19:07 45.87869 26.65962 17997 ft 334 kts
2026-04-23 19:08 45.90105 26.66540 17070 ft 328 kts
2026-04-23 19:08 45.92362 26.67125 16094 ft 324 kts
2026-04-23 19:08 45.94549 26.67695 15410 ft 323 kts
2026-04-23 19:08 45.96767 26.68272 15155 ft 323 kts
2026-04-23 19:09 45.98958 26.68841 14908 ft 309 kts
2026-04-23 19:09 46.01022 26.69379 14663 ft 302 kts
2026-04-23 19:09 46.03068 26.69914 14423 ft 296 kts
2026-04-23 19:09 46.05104 26.70448 14150 ft 292 kts
2026-04-23 19:10 46.07098 26.70969 13914 ft 290 kts
2026-04-23 19:10 46.09060 26.71482 13694 ft 290 kts
2026-04-23 19:10 46.11042 26.72001 13429 ft 288 kts
2026-04-23 19:10 46.13009 26.72514 13150 ft 286 kts
2026-04-23 19:11 46.14972 26.73027 12879 ft 286 kts
2026-04-23 19:11 46.16925 26.73540 12623 ft 284 kts
2026-04-23 19:11 46.18867 26.74049 12358 ft 283 kts
2026-04-23 19:11 46.20809 26.74558 11992 ft 283 kts
2026-04-23 19:12 46.22084 26.74893 11851 ft 277 kts
2026-04-23 19:12 46.24572 26.75554 11556 ft 268 kts
2026-04-23 19:12 46.26397 26.76035 11227 ft 266 kts
2026-04-23 19:12 46.28209 26.76511 10862 ft 264 kts
2026-04-23 19:13 46.30014 26.76989 10648 ft 264 kts
2026-04-23 19:13 46.31827 26.77471 10485 ft 264 kts
2026-04-23 19:13 46.33634 26.77950 10356 ft 264 kts
2026-04-23 19:13 46.35444 26.78426 10226 ft 265 kts
2026-04-23 19:14 46.37256 26.78902 10098 ft 264 kts
2026-04-23 19:14 46.39063 26.79376 9977 ft 264 kts
2026-04-23 19:14 46.40872 26.79852 9850 ft 264 kts
2026-04-23 19:14 46.42706 26.80335 9279 ft 271 kts
2026-04-23 19:15 46.44512 26.80814 9086 ft 263 kts
2026-04-23 19:15 46.46295 26.81300 8780 ft 260 kts
2026-04-23 19:15 46.47942 26.82412 8437 ft 268 kts 33°
2026-04-23 19:15 46.49086 26.84578 8130 ft 276 kts 63°
2026-04-23 19:16 46.49389 26.87277 7992 ft 274 kts 90°
2026-04-23 19:16 46.48848 26.89918 7858 ft 274 kts 109°
2026-04-23 19:16 46.48075 26.92442 7542 ft 273 kts 109°
2026-04-23 19:17 46.46543 26.97317 7240 ft 257 kts 110°
2026-04-23 19:17 46.45810 26.99644 7108 ft 250 kts 110°
2026-04-23 19:17 46.45101 27.01904 6988 ft 242 kts 111°
2026-04-23 19:17 46.44122 27.03815 6856 ft 235 kts 144°
2026-04-23 19:18 46.42630 27.04561 6609 ft 222 kts 176°
2026-04-23 19:18 46.41131 27.04676 6365 ft 210 kts 183°
2026-04-23 19:18 46.40168 27.04676 6007 ft 208 kts 187°
2026-04-23 19:18 46.38897 27.03926 5504 ft 192 kts 228°
2026-04-23 19:19 46.37840 27.00739 4523 ft 170 kts 274°
2026-04-23 19:19 46.37953 26.99086 4017 ft 162 kts 292°
2026-04-23 19:20 46.39151 26.96510 3172 ft 154 kts 325°
2026-04-23 19:20 46.40090 26.95776 2917 ft 154 kts 341°
2026-04-23 19:20 46.41126 26.95358 2683 ft 155 kts 345°
2026-04-23 19:20 46.42172 26.94948 2463 ft 155 kts 345°
2026-04-23 19:21 46.43151 26.94564 2255 ft 138 kts 344°
2026-04-23 19:21 46.44951 26.93859 1888 ft 133 kts 344°
2026-04-23 19:21 46.45842 26.93510 1706 ft 133 kts 344°
2026-04-23 19:22 46.46745 26.93156 1526 ft 136 kts 345°
2026-04-23 19:22 46.47647 26.92801 1354 ft 136 kts 345°
2026-04-23 19:22 46.49447 26.92095 962 ft 131 kts 345°
2026-04-23 19:23 46.50331 26.91746 780 ft 132 kts 344°
2026-04-23 19:23 46.51215 26.91400 642 ft 132 kts 344°
2026-04-23 19:23 46.52001 26.91089 623 ft 76 kts 345°
2026-04-23 19:24 46.52151 26.91032 626 ft 0 kts 346°
2026-04-23 19:24 46.52169 26.91026 619 ft 12 kts 346°
2026-04-23 19:25 46.52397 26.90941 625 ft 19 kts 340°
2026-04-23 19:25 46.52683 26.90824 620 ft 24 kts 347°
2026-04-23 19:26 46.52905 26.90976 620 ft 21 kts 346°
2026-04-23 19:26 46.53050 26.90922 614 ft 22 kts 346°
2026-04-23 19:27 46.53208 26.90861 622 ft 0 kts
2026-04-23 19:27 46.53238 26.90965 618 ft 0 kts 76°